Location: Mount Wilson Observatory
(34.2257°N, 118.0571°W)
Time: 19:35:11
(UTC-07:00)

ATLAS 3B CENTAUR R/B - Visible Passes

Search period start: 30 June 2016 00:00
Search period end: 10 July 2016 00:00
Orbit: 222 x 6651 km, 28.1° (Epoch: 30 June)

Date Brightness Start Highest point End Pass type
(mag) Time Alt. Az. Time Alt. Az. Time Alt. Az.
30 Jun 6.3 02:20:23 24° S 02:35:46 33° SE 03:11:54 10° E visible
30 Jun 6.5 05:02:17 10° SW 05:40:43 66° SSE 06:18:51 10° E visible
01 Jul 6.2 02:31:12 26° S 02:47:06 38° SE 03:25:16 10° E visible
01 Jul 6.5 05:13:57 10° SW 05:52:57 69° SSE 06:30:59 10° E visible
02 Jul 6.1 02:41:49 28° S 02:58:14 42° SE 03:38:07 10° E visible
03 Jul 6.0 02:52:13 29° S 03:09:13 46° SE 03:50:32 10° E visible
04 Jul 6.5 00:21:17 13° SE 00:23:56 13° ESE 00:36:47 10° E visible
04 Jul 5.9 03:02:24 29° SSW 03:20:03 51° SE 04:02:34 10° E visible
05 Jul 6.4 00:31:17 17° SE 00:34:10 17° ESE 00:52:57 10° E visible
05 Jul 5.8 03:12:23 29° SSW 03:30:46 55° SE 04:14:16 10° E visible
06 Jul 6.3 00:41:04 20° SE 00:44:10 21° ESE 01:07:15 10° E visible
06 Jul 5.8 03:22:09 29° SSW 03:41:22 59° SSE 04:25:40 10° E visible
07 Jul 6.1 00:50:39 24° SE 00:53:58 25° SE 01:20:25 10° E visible
07 Jul 5.8 03:31:43 27° SW 03:51:51 62° SSE 04:36:47 10° E visible
08 Jul 5.9 01:00:02 28° SE 01:03:33 29° SE 01:32:46 10° E visible
08 Jul 5.8 03:41:04 25° SW 04:02:13 66° SSE 04:47:38 10° E visible
09 Jul 5.8 01:09:13 32° SE 01:12:59 33° SE 01:44:30 10° E visible
09 Jul 5.8 03:50:14 23° SW 04:12:27 69° SSE 04:58:14 10° E visible
